DW8338 Weather Reports


time (UTC)temp
C
wind
direction
speed
KPH
gust
KPH
rain 1hr
cm
rain 24hr
cm
rain mn
cm
humidity
%
barometer
mb
20260507144803 22 231 14.5 25.7 0.00 0.00 0.00 45 1008.2
20260507144304 22 231 12.9 24.1 0.00 0.00 0.00 47 1008.2
20260507143304 22 208 14.5 20.9 0.00 0.00 0.00 49 1008.3
20260507142306 22 227 16.1 25.7 0.00 0.00 0.00 50 1008.5
20260507141804 22 229 17.7 25.7 0.00 0.00 0.00 52 1008.5
20260507141304 22 212 11.3 22.5 0.00 0.00 0.00 52 1008.5
20260507140804 22 212 16.1 27.4 0.00 0.00 0.00 53 1008.5
20260507140304 22 187 14.5 27.4 0.00 0.00 0.00 53 1008.5
20260507135804 22 200 19.3 29.0 0.00 0.00 0.00 51 1008.6
20260507134303 22 161 11.3 22.5 0.00 0.00 0.00 53 1008.8
20260507133804 21 233 12.9 27.4 0.00 0.00 0.00 53 1008.8
20260507133304 21 208 17.7 25.7 0.00 0.00 0.00 53 1008.9
20260507132804 21 216 14.5 22.5 0.00 0.00 0.00 52 1008.9
20260507132307 21 230 12.9 22.5 0.00 0.00 0.00 53 1008.9
20260507131804 21 190 14.5 22.5 0.00 0.00 0.00 53 1008.9
20260507131304 21 177 11.3 24.1 0.00 0.00 0.00 54 1008.9
20260507130804 21 183 17.7 32.2 0.00 0.00 0.00 53 1008.9
20260507130304 21 174 14.5 27.4 0.00 0.00 0.00 52 1009.0
20260507125804 21 205 11.3 22.5 0.00 0.00 0.00 53 1009.0
20260507125306 22 224 11.3 24.1 0.00 0.00 0.00 52 1009.1
20260507124803 22 203 14.5 24.1 0.00 0.00 0.00 53 1009.1
20260507124303 22 182 11.3 20.9 0.00 0.00 0.00 54 1009.1
20260507123804 22 211 14.5 25.7 0.00 0.00 0.00 53 1009.1
20260507123304 22 188 9.7 27.4 0.00 0.00 0.00 54 1009.2
20260507122804 21 215 14.5 22.5 0.00 0.00 0.00 54 1009.2
20260507122307 21 182 12.9 27.4 0.00 0.00 0.00 55 1009.3
20260507121804 22 213 14.5 22.5 0.00 0.00 0.00 54 1009.3
20260507121303 22 206 14.5 22.5 0.00 0.00 0.00 56 1009.3
20260507120804 21 203 11.3 22.5 0.00 0.00 0.00 55 1009.3
20260507120304 21 174 16.1 29.0 0.00 0.00 0.00 55 1009.4
20260507115804 21 223 11.3 22.5 0.00 0.00 0.00 56 1009.4
20260507115307 21 229 14.5 29.0 0.00 0.00 0.00 56 1009.5
20260507114804 21 206 14.5 27.4 0.00 0.00 0.00 55 1009.4
20260507114304 21 191 12.9 29.0 0.00 0.00 0.00 55 1009.6
20260507113803 21 177 11.3 20.9 0.00 0.00 0.00 56 1009.6
20260507113304 21 178 14.5 22.5 0.00 0.00 0.00 57 1009.6
20260507112306 21 207 12.9 24.1 0.00 0.00 0.00 58 1009.7
20260507111804 21 190 9.7 20.9 0.00 0.00 0.00 58 1009.7
20260507111304 20 213 9.7 19.3 0.00 0.00 0.00 60 1009.8
20260507110804 20 219 16.1 25.7 0.00 0.00 0.00 61 1009.8
20260507110304 20 189 17.7 32.2 0.00 0.00 0.00 60 1009.8
20260507105306 20 214 11.3 27.4 0.00 0.00 0.00 62 1009.8
20260507104804 20 210 16.1 27.4 0.00 0.00 0.00 61 1009.8
20260507104303 20 205 9.7 20.9 0.00 0.00 0.00 61 1009.8
20260507103804 20 196 11.3 22.5 0.00 0.00 0.00 62 1009.8
20260507102804 20 178 11.3 22.5 0.00 0.00 0.00 63 1009.9
20260507102306 20 228 11.3 22.5 0.00 0.00 0.00 64 1009.9
20260507101804 20 179 9.7 22.5 0.00 0.00 0.00 64 1009.9
20260507100804 19 175 11.3 19.3 0.00 0.00 0.00 66 1010.1
20260507100304 18 163 8.0 19.3 0.00 0.00 0.00 66 1010.1
20260507095804 19 196 9.7 19.3 0.00 0.00 0.00 65 1010.1
20260507095306 19 189 12.9 22.5 0.00 0.00 0.00 65 1010.1
20260507094803 19 183 12.9 22.5 0.00 0.00 0.00 66 1010.1
20260507094304 19 215 19.3 27.4 0.00 0.00 0.00 66 1010.1
20260507093804 19 206 14.5 25.7 0.00 0.00 0.00 68 1010.1
20260507093304 18 165 11.3 20.9 0.00 0.00 0.00 69 1010.1
20260507092803 18 178 11.3 20.9 0.00 0.00 0.00 69 1010.1
20260507092306 18 162 12.9 20.9 0.00 0.00 0.00 69 1010.1
20260507090804 18 175 16.1 22.5 0.00 0.00 0.00 71 1010.2
20260507085804 18 183 16.1 27.4 0.00 0.00 0.00 71 1010.2
20260507085306 18 142 9.7 25.7 0.00 0.00 0.00 72 1010.0
20260507084803 18 167 9.7 24.1 0.00 0.00 0.00 72 1010.0
20260507083804 18 146 11.3 22.5 0.00 0.00 0.00 74 1010.1
20260507083304 17 138 11.3 20.9 0.00 0.00 0.00 74 1010.0
20260507082804 17 143 14.5 20.9 0.00 0.00 0.00 74 1010.0
20260507081304 17 172 9.7 19.3 0.00 0.00 0.00 74 1009.9
20260507080804 17 167 11.3 20.9 0.00 0.00 0.00 74 1009.9
20260507080304 17 168 11.3 19.3 0.00 0.00 0.00 74 1009.8
20260507075804 17 190 8.0 19.3 0.00 0.00 0.00 75 1009.8
20260507075306 17 188 12.9 19.3 0.00 0.00 0.00 75 1009.8
20260507074304 17 189 9.7 24.1 0.00 0.00 0.00 74 1009.7
20260507073804 16 137 6.4 14.5 0.00 0.00 0.00 75 1009.7
20260507073304 16 180 9.7 14.5 0.00 0.00 0.00 75 1009.6
20260507072803 16 181 4.8 12.9 0.00 0.00 0.00 75 1009.6
20260507072306 16 141 8.0 11.3 0.00 0.00 0.00 74 1009.5
20260507071804 16 157 6.4 11.3 0.00 0.00 0.00 74 1009.5
20260507070804 16 166 4.8 8.0 0.00 0.00 0.00 75 1009.5
20260507070304 16 111 3.2 9.7 0.00 0.00 0.00 75 1009.4
20260507065804 15 94 4.8 11.3 0.00 0.00 0.00 76 1009.4
20260507065306 15 137 4.8 9.7 0.00 0.00 0.00 76 1009.4
20260507064803 15 142 4.8 12.9 0.00 0.00 0.00 77 1009.4
20260507064303 15 155 4.8 8.0 0.00 0.00 0.00 77 1009.4
20260507063804 15 165 4.8 4.8 0.00 0.00 0.00 78 1009.4
20260507063304 15 163 3.2 4.8 0.00 0.00 0.00 78 1009.3
20260507062804 15 146 3.2 4.8 0.00 0.00 0.00 78 1009.2
20260507062306 15 129 3.2 4.8 0.00 0.00 0.00 78 1009.2
20260507061804 15 238 0.0 1.6 0.00 0.00 0.00 78 1009.1
20260507061303 15 211 1.6 4.8 0.00 0.00 0.00 78 1009.1
20260507060804 15 158 1.6 4.8 0.00 0.00 0.00 79 1009.1
20260507060304 15 130 0.0 3.2 0.00 0.00 0.00 79 1009.0
20260507055804 14 161 3.2 4.8 0.00 0.00 0.00 79 1009.0
20260507055306 14 111 1.6 8.0 0.00 0.00 0.00 80 1009.0
20260507054804 14 110 3.2 8.0 0.00 0.00 0.00 80 1009.0
20260507054304 14 154 1.6 3.2 0.00 0.00 0.00 80 1008.9
20260507053804 14 160 1.6 3.2 0.00 0.00 0.00 80 1008.9
20260507053303 14 146 1.6 4.8 0.00 0.00 0.00 80 1009.0
20260507052803 14 124 1.6 4.8 0.00 0.00 0.00 80 1009.0
20260507051803 14 147 1.6 3.2 0.00 0.00 0.00 80 1008.9
20260507051303 14 149 0.0 4.8 0.00 0.00 0.00 80 1008.9
20260507050804 14 186 3.2 4.8 0.00 0.00 0.00 81 1008.8
20260507050304 14 183 0.0 3.2 0.00 0.00 0.00 81 1008.8
20260507045804 14 184 0.0 1.6 0.00 0.00 0.00 81 1008.8
20260507045306 14 204 1.6 4.8 0.00 0.00 0.00 81 1008.8
20260507044304 14 213 3.2 4.8 0.00 0.00 0.00 80 1008.6
20260507043804 14 192 3.2 4.8 0.00 0.00 0.00 80 1008.4
20260507043303 14 178 1.6 4.8 0.00 0.00 0.00 80 1008.4
20260507042804 14 198 3.2 4.8 0.00 0.00 0.00 80 1008.4
20260507042306 14 210 3.2 4.8 0.00 0.00 0.00 80 1008.4
20260507041804 14 196 1.6 11.3 0.00 0.00 0.00 80 1008.4
20260507041304 15 183 4.8 9.7 0.00 0.00 0.00 80 1008.3
20260507040804 15 153 3.2 11.3 0.00 0.00 0.00 79 1008.3
20260507040303 15 130 1.6 4.8 0.00 0.00 0.00 79 1008.3
20260507035804 15 163 3.2 4.8 0.00 0.00 0.00 79 1008.3
20260507034304 15 169 3.2 8.0 0.00 0.00 0.00 79 1008.3
20260507033803 15 154 4.8 9.7 0.00 0.00 0.00 78 1008.3
20260507033304 15 185 3.2 9.7 0.00 0.00 0.00 78 1008.3
20260507032804 15 132 0.0 3.2 0.00 0.00 0.00 78 1008.4
20260507031804 15 190 1.6 9.7 0.00 0.00 0.00 77 1008.4
20260507031304 15 165 4.8 8.0 0.00 0.00 0.00 77 1008.2
20260507030804 15 167 6.4 11.3 0.00 0.00 0.00 77 1008.2
20260507030304 15 180 4.8 11.3 0.00 0.00 0.00 77 1008.2
20260507025803 15 168 4.8 9.7 0.00 0.00 0.00 78 1008.2
20260507025306 15 152 3.2 4.8 0.00 0.00 0.00 78 1008.2
20260507024804 15 129 0.0 1.6 0.00 0.00 0.00 77 1008.2
20260507024303 15 168 0.0 4.8 0.00 0.00 0.00 77 1008.2
20260507023804 15 156 3.2 4.8 0.00 0.00 0.00 77 1008.2
20260507023304 15 187 0.0 3.2 0.00 0.00 0.00 77 1008.1
20260507022804 15 170 1.6 3.2 0.00 0.00 0.00 77 1008.1
20260507022306 15 181 3.2 4.8 0.00 0.00 0.00 77 1008.1
20260507021804 15 175 3.2 4.8 0.00 0.00 0.00 77 1008.1
20260507021304 15 197 4.8 8.0 0.00 0.00 0.00 77 1008.1
20260507020804 15 198 4.8 8.0 0.00 0.00 0.00 76 1008.1
20260507020303 15 182 3.2 4.8 0.00 0.00 0.00 76 1008.1
20260507015306 15 158 6.4 11.3 0.00 0.00 0.00 76 1008.3
20260507014804 15 177 4.8 11.3 0.00 0.00 0.00 76 1008.3
20260507014304 15 191 4.8 11.3 0.00 0.00 0.00 76 1008.3
20260507013804 15 198 4.8 12.9 0.00 0.00 0.00 75 1008.3
20260507013304 15 179 6.4 11.3 0.00 0.00 0.00 75 1008.4
20260507012804 15 187 6.4 11.3 0.00 0.00 0.00 75 1008.4
20260507012306 15 195 8.0 12.9 0.00 0.00 0.00 75 1008.4
20260507011804 15 189 8.0 11.3 0.00 0.00 0.00 75 1008.4
20260507011304 15 178 6.4 11.3 0.00 0.00 0.00 75 1008.5
20260507010804 15 192 4.8 8.0 0.00 0.00 0.00 75 1008.6
20260507005804 15 160 3.2 8.0 0.00 0.00 0.00 75 1008.7
20260507005305 15 184 4.8 9.7 0.00 0.00 0.00 75 1008.7
20260507004804 15 182 6.4 11.3 0.00 0.00 0.00 75 1008.7
20260507004304 15 161 6.4 11.3 0.00 0.00 0.00 75 1008.8
20260507003804 15 176 4.8 8.0 0.00 0.00 0.00 75 1008.8
20260507002306 15 197 8.0 11.3 0.00 0.00 0.00 74 1008.8
20260507001804 15 184 8.0 12.9 0.00 0.00 0.00 74 1008.8
20260507001303 15 202 4.8 12.9 0.00 0.00 0.00 74 1008.8
20260507000804 15 179 8.0 14.5 0.00 0.00 0.00 74 1009.0
20260507000306 15 160 8.0 16.1 0.00 0.00 0.00 74 1009.0
20260506235804 15 163 8.0 19.3 0.00 0.00 0.00 74 1009.0
20260506235306 15 163 9.7 14.5 0.00 0.00 0.00 74 1009.0
20260506234804 15 167 8.0 14.5 0.00 0.00 0.00 74 1009.0
20260506234303 15 154 8.0 12.9 0.00 0.00 0.00 74 1009.0
20260506233304 16 177 8.0 12.9 0.00 0.00 0.00 73 1009.1
20260506232804 16 162 4.8 11.3 0.00 0.00 0.00 73 1009.1
20260506232306 16 187 3.2 9.7 0.00 0.00 0.00 73 1009.0
20260506231804 16 172 8.0 12.9 0.00 0.00 0.00 73 1009.1
20260506231303 16 181 4.8 9.7 0.00 0.00 0.00 73 1009.1
20260506230804 16 165 4.8 9.7 0.00 0.00 0.00 73 1009.1
20260506230304 16 199 4.8 9.7 0.00 0.00 0.00 72 1009.1
20260506225804 16 186 3.2 8.0 0.00 0.00 0.00 72 1009.2
20260506225305 16 191 6.4 9.7 0.00 0.00 0.00 71 1009.2
20260506224804 16 194 4.8 9.7 0.00 0.00 0.00 71 1009.1
20260506224303 16 185 6.4 11.3 0.00 0.00 0.00 70 1009.2
20260506223804 16 180 8.0 12.9 0.00 0.00 0.00 69 1009.2
20260506221804 16 164 8.0 16.1 0.00 0.00 0.00 66 1009.1
20260506221304 16 168 6.4 11.3 0.00 0.00 0.00 65 1009.0
20260506220803 17 177 6.4 9.7 0.00 0.00 0.00 64 1009.0
20260506220303 17 169 4.8 11.3 0.00 0.00 0.00 63 1009.0
20260506215804 17 182 8.0 12.9 0.00 0.00 0.00 63 1009.0
20260506215306 17 163 8.0 12.9 0.00 0.00 0.00 62 1009.1
20260506214303 17 180 9.7 12.9 0.00 0.00 0.00 61 1009.0
20260506213804 17 180 8.0 14.5 0.00 0.00 0.00 60 1009.0
20260506212804 18 172 6.4 11.3 0.00 0.00 0.00 58 1008.9
20260506212306 18 179 6.4 11.3 0.00 0.00 0.00 58 1008.7
20260506211804 18 164 6.4 12.9 0.00 0.00 0.00 57 1008.7
20260506211304 18 174 6.4 11.3 0.00 0.00 0.00 57 1008.7
20260506210804 18 198 4.8 9.7 0.00 0.00 0.00 57 1008.6
20260506210304 18 189 4.8 11.3 0.00 0.00 0.00 56 1008.4
20260506205803 18 189 3.2 9.7 0.00 0.00 0.00 56 1008.4
20260506204304 18 226 4.8 19.3 0.00 0.00 0.00 55 1008.2
20260506203804 18 233 3.2 9.7 0.00 0.00 0.00 55 1008.2
20260506203305 18 208 4.8 11.3 0.00 0.00 0.00 55 1008.2
20260506202804 19 201 6.4 11.3 0.00 0.00 0.00 54 1008.1
20260506202306 19 189 8.0 16.1 0.00 0.00 0.00 54 1008.1
20260506201804 19 211 6.4 12.9 0.00 0.00 0.00 54 1008.0
20260506201304 19 199 8.0 16.1 0.00 0.00 0.00 53 1008.0
20260506200804 19 205 4.8 12.9 0.00 0.00 0.00 53 1008.0
20260506200304 20 218 9.7 14.5 0.00 0.00 0.00 53 1008.0
20260506195804 20 224 8.0 19.3 0.00 0.00 0.00 52 1008.0
20260506194804 20 219 6.4 16.1 0.00 0.00 0.00 51 1007.9
20260506194304 20 226 8.0 12.9 0.00 0.00 0.00 50 1007.8
20260506193803 20 221 4.8 9.7 0.00 0.00 0.00 50 1007.7
20260506193304 20 197 9.7 19.3 0.00 0.00 0.00 50 1007.7
20260506192804 20 233 11.3 19.3 0.00 0.00 0.00 50 1007.6
20260506192305 21 233 14.5 22.5 0.00 0.00 0.00 51 1007.5
20260506191303 21 225 11.3 19.3 0.00 0.00 0.00 50 1007.4
20260506190804 21 224 12.9 20.9 0.00 0.00 0.00 49 1007.3
20260506190304 21 226 8.0 16.1 0.00 0.00 0.00 48 1007.3
20260506185804 21 240 11.3 22.5 0.00 0.00 0.00 48 1007.3
20260506185306 21 245 9.7 20.9 0.00 0.00 0.00 47 1007.3
20260506184804 22 257 11.3 16.1 0.00 0.00 0.00 47 1007.2
20260506184304 22 255 9.7 16.1 0.00 0.00 0.00 47 1007.2
20260506183804 22 227 16.1 25.7 0.00 0.00 0.00 47 1007.2
20260506183304 22 253 11.3 19.3 0.00 0.00 0.00 46 1007.2
20260506182804 22 253 11.3 22.5 0.00 0.00 0.00 46 1007.2
20260506182306 22 241 14.5 22.5 0.00 0.00 0.00 45 1007.2
20260506181803 22 201 9.7 19.3 0.00 0.00 0.00 46 1007.2
20260506181303 22 212 14.5 25.7 0.00 0.00 0.00 46 1007.1
20260506180804 22 236 14.5 24.1 0.00 0.00 0.00 44 1007.1
20260506180304 22 241 16.1 22.5 0.00 0.00 0.00 43 1007.1
20260506175804 23 227 14.5 20.9 0.00 0.00 0.00 42 1007.1
20260506175306 23 231 11.3 19.3 0.00 0.00 0.00 41 1007.1
20260506174804 23 258 8.0 14.5 0.00 0.00 0.00 41 1007.1
20260506174304 23 239 11.3 16.1 0.00 0.00 0.00 40 1007.1
20260506173804 23 238 12.9 19.3 0.00 0.00 0.00 41 1007.1
20260506172306 23 241 11.3 19.3 0.00 0.00 0.00 41 1007.3
20260506171803 23 178 9.7 25.7 0.00 0.00 0.00 41 1007.3
20260506171303 24 220 11.3 22.5 0.00 0.00 0.00 40 1007.3
20260506170804 24 204 9.7 19.3 0.00 0.00 0.00 40 1007.3
20260506170304 24 219 8.0 19.3 0.00 0.00 0.00 40 1007.3
20260506165803 24 223 11.3 20.9 0.00 0.00 0.00 40 1007.3
20260506165305 24 211 14.5 20.9 0.00 0.00 0.00 40 1007.3
20260506164304 25 218 9.7 19.3 0.00 0.00 0.00 40 1007.5
20260506163803 24 193 9.7 25.7 0.00 0.00 0.00 40 1007.5
20260506163304 24 202 14.5 22.5 0.00 0.00 0.00 39 1007.4
20260506162803 24 198 17.7 27.4 0.00 0.00 0.00 38 1007.4
20260506162306 25 160 9.7 19.3 0.00 0.00 0.00 38 1007.4
20260506161304 25 142 8.0 14.5 0.00 0.00 0.00 34 1007.5
20260506160803 25 212 8.0 11.3 0.00 0.00 0.00 34 1007.5
20260506160304 25 129 6.4 12.9 0.00 0.00 0.00 34 1007.5
20260506155803 25 172 4.8 14.5 0.00 0.00 0.00 36 1007.5
20260506154804 24 107 6.4 14.5 0.00 0.00 0.00 35 1007.6
20260506153804 24 122 4.8 12.9 0.00 0.00 0.00 36 1007.7
20260506152804 24 77 11.3 19.3 0.00 0.00 0.00 36 1008.1
20260506152305 24 72 4.8 14.5 0.00 0.00 0.00 37 1008.1
20260506151803 23 126 1.6 11.3 0.00 0.00 0.00 38 1008.1
20260506151304 24 128 9.7 12.9 0.00 0.00 0.00 37 1008.2
20260506150804 24 179 11.3 16.1 0.00 0.00 0.00 36 1008.2
20260506150305 24 134 1.6 4.8 0.00 0.00 0.00 36 1008.3
20260506145803 24 134 4.8 8.0 0.00 0.00 0.00 36 1008.3
20260506145305 24 178 3.2 11.3 0.00 0.00 0.00 37 1008.4